Location: Brabourne
(51.1333°N, 1.0000°E)
Time: 22:13:30
(UTC+00:00)

USA 229 DEB - Pass Details

Date: 20 June 2021
Orbit: 955 x 1257 km, 63.4° (Epoch: 25 July)

Event Time Altitude Azimuth Distance (km) Brightness Sun altitude
Exits shadow 02:09:50 - 248° (WSW) 3,249 5.8 -10.0°
Reaches altitude 10° 02:11:12 10° 251° (WSW) 2,776 5.4 -9.8°
Maximum altitude 02:17:33 52° 327° (NNW) 1,298 4.4 -9.3°
Drops below altitude 10° 02:24:25 10° 43° (NE) 2,987 7.7 -8.7°
Sets 02:27:19 0° 49° (NE) 3,995 8.5 -8.5°
